Hourly Data Report for October 12, 2015

All times are specified in Local Standard Time (LST). Add 1 hour to adjust for Daylight Saving Time where and when it is observed.

RANKIN INLET A
NUNAVUT

62°48'38.000" N
92°06'53.000" W
32.30 m
2303405
71083
YRT

Download Data

Hourly Data (October 2015)
Hourly Data Report for October 12, 2015
Temp Definition
°C
Dew Point Temp Definition
°C
Rel Hum Definition
%
Wind Dir Definition
10's deg

Wind Spd Definition
km/h
Visibility Definition
km
Stn Press Definition
kPa
Hmdx Definition


Wind Chill Definition


Weather Definition


TIME
00:00 Legend Double Dagger -4.5 -7.0 83 4 16 24.1 100.20   -10 Cloudy
01:00 Legend Double Dagger -4.1 -6.4 84 4 10 24.1 100.22   -8 LegendNANA
02:00 Legend Double Dagger -4.8 -6.9 85 36 12 24.1 100.21   -10 LegendNANA
03:00 Legend Double Dagger -5.1 -7.7 82 2 14 24.1 100.21   -10 Cloudy
04:00 Legend Double Dagger -5.5 -8.8 78 3 12 24.1 100.19   -10 LegendNANA
05:00 Legend Double Dagger -5.2 -8.5 78 3 4 24.1 100.20   -7 LegendNANA
06:00 Legend Double Dagger -5.1 -8.9 75 4 6 24.1 100.21   -8 Cloudy
07:00 Legend Double Dagger -5.3 -9.1 75 3 5 24.1 100.23   -8 LegendNANA
08:00 Legend Double Dagger -4.7 -9.0 72 3 3 24.1 100.24   -6 LegendNANA
09:00 Legend Double Dagger -4.4 -7.7 78 36 3 24.1 100.24   -6 Cloudy
10:00 Legend Double Dagger -3.7 -8.0 72 34 3 24.1 100.23   -5 LegendNANA
11:00 Legend Double Dagger -2.6 -7.5 69 25 11 12.9 100.19   -7 LegendNANA
12:00 Legend Double Dagger -2.8 -4.4 89 25 15 2.4 100.17   -8 Snow
13:00 Legend Double Dagger -2.5 -4.4 87 27 26 3.2 100.11   -9 Snow
14:00 Legend Double Dagger -3.6 -5.3 88 32 32 8.1 100.10   -11 Snow
15:00 Legend Double Dagger -6.0 -8.0 86 32 35 24.1 100.16   -15 Mostly Cloudy
16:00 Legend Double Dagger -6.9 -8.9 86 32 33 24.1 100.21   -16 LegendNANA
17:00 Legend Double Dagger -7.6 -9.9 84 31 31 24.1 100.25   -17 LegendNANA
18:00 Legend Double Dagger -7.6 -10.3 81 32 29 24.1 100.24   -16 Mostly Cloudy
19:00 Legend Double Dagger -7.1 -10.0 80 32 28 24.1 100.22   -15 LegendNANA
20:00 Legend Double Dagger -6.0 -9.2 78 31 29 24.1 100.17   -14 LegendNANA
21:00 Legend Double Dagger -5.6 -9.2 76 31 27 24.1 100.13   -13 Cloudy
22:00 Legend Double Dagger -5.5 -9.4 74 30 35 24.1 100.12   -14 LegendNANA
23:00 Legend Double Dagger -5.7 -9.1 77 31 32 24.1 100.13   -14 LegendNANA

Notes on Data Quality.

Legend

  • E = Estimated
  • M = Missing
  • NA = Not Available
  • ‡ = Partner data that is not subject to review by the National Climate Archives
Date modified: